Weather History for Tri-Cities, TN

Change the Weather History Date:

Wednesday, October 16, 2013

  Actual Average Record
Temperature  
Mean Temperature 61 °F 56 °F  
Max Temperature 68 °F 69 °F 83 °F (1984)
Min Temperature 53 °F 43 °F 28 °F (1939)
Degree Days  
Heating Degree Days 4 9  
Month to date heating degree days 36 112  
Since 1 July heating degree days 55 165  
Cooling Degree Days 0 0  
Month to date cooling degree days 25 9  
Year to date cooling degree days 1003 977  
Growing Degree Days 10 (Base 50)    
Moisture  
Dew Point 55 °F    
Average Humidity 78    
Maximum Humidity 93    
Minimum Humidity 63    
Precipitation  
Precipitation T in 0.07 in 3.65 in (1964)
Month to date precipitation 0.44 1.06  
Year to date precipitation 47.16 33.50  
Snow  
Snow 0.00 in 0.00 in - ()
Month to date snowfall 0.0 0.0  
Since 1 July snowfall 0.0 0.0  
Since 1 September snowfall 0.0 0.0  
Snow Depth 0.00 in    
Sea Level Pressure  
Sea Level Pressure 29.98 in    
Wind  
Wind Speed 1 mph (NW)    
Max Wind Speed 8 mph    
Max Gust Speed 11 mph    
Visibility 10 miles    
Events Rain    
T = Trace of Precipitation, MM = Missing Value Source: NWS Daily Summary

Daily Weather History Graph

Daily Weather History Graph

Search for Another Location

Airport:

Trip Planner

Search our weather history database for the weather conditions in past years. The results will help you decide how hot, cold, wet, or windy it might be!

Date:

Astronomy

Oct. 16, 2013 Rise Set
Actual Time 7:37 AM EDT 6:51 PM EDT
Civil Twilight 7:11 AM EDT 7:17 PM EDT
Nautical Twilight 6:41 AM EDT 7:47 PM EDT
Astronomical Twilight 6:12 AM EDT 8:17 PM EDT
Moon 5:27 PM EDT (10/16) 5:08 AM EDT (10/16)
Length of Visible Light 12h 05m
Length of Day
11h 13m
Waxing Gibbous, 94% of the Moon is Illuminated
Oct 16
Waxing Gibbous
Oct 18
Full
Oct 26
Last Quarter
Nov 3
New
Nov 10
First Quarter

Hourly Weather History & Observations

Time (EDT) Temp. Dew Point Humidity Pressure Visibility Wind Dir Wind Speed Gust Speed Precip Events Conditions
12:53 AM 59.0 °F 55.0 °F 87% 30.00 in 10.0 mi Calm Calm - N/A   Clear
1:53 AM 59.0 °F 55.0 °F 87% 29.99 in 10.0 mi Calm Calm - N/A   Mostly Cloudy
2:53 AM 59.0 °F 54.0 °F 83% 29.99 in 10.0 mi Calm Calm - N/A   Overcast
3:53 AM 59.0 °F 55.0 °F 87% 29.98 in 10.0 mi Calm Calm - N/A   Overcast
4:53 AM 57.0 °F 54.0 °F 89% 29.99 in 10.0 mi Calm Calm - N/A   Scattered Clouds
5:53 AM 55.0 °F 52.0 °F 89% 30.00 in 10.0 mi Calm Calm - N/A   Partly Cloudy
6:53 AM 54.0 °F 51.1 °F 90% 30.01 in 10.0 mi Calm Calm - N/A   Partly Cloudy
7:53 AM 54.0 °F 52.0 °F 93% 30.02 in 10.0 mi Calm Calm - N/A   Mostly Cloudy
8:53 AM 57.9 °F 53.1 °F 84% 30.02 in 10.0 mi East 3.5 mph - N/A   Mostly Cloudy
9:53 AM 60.1 °F 53.1 °F 78% 30.03 in 10.0 mi Calm Calm - N/A   Mostly Cloudy
10:53 AM 63.0 °F 53.1 °F 70% 30.03 in 10.0 mi Calm Calm - N/A   Mostly Cloudy
11:53 AM 64.0 °F 53.1 °F 67% 30.02 in 10.0 mi Calm Calm - N/A   Mostly Cloudy
12:53 PM 66.0 °F 54.0 °F 65% 29.99 in 10.0 mi Calm Calm - 0.00 in   Mostly Cloudy
1:53 PM 66.9 °F 53.1 °F 61% 29.98 in 10.0 mi Variable 3.5 mph - N/A   Overcast
2:53 PM 66.9 °F 55.0 °F 66% 29.96 in 10.0 mi West 4.6 mph - N/A   Overcast
3:53 PM 66.9 °F 55.0 °F 66% 29.95 in 10.0 mi WNW 3.5 mph - N/A   Overcast
4:53 PM 66.9 °F 55.0 °F 66% 29.94 in 10.0 mi WNW 5.8 mph - N/A   Overcast
5:53 PM 66.9 °F 55.0 °F 66% 29.95 in 10.0 mi NW 3.5 mph - N/A   Overcast
6:53 PM 66.0 °F 55.9 °F 70% 29.96 in 10.0 mi West 3.5 mph - N/A   Overcast
7:53 PM 63.0 °F 57.0 °F 81% 29.96 in 10.0 mi Calm Calm - N/A   Overcast
8:53 PM 63.0 °F 57.0 °F 81% 29.96 in 10.0 mi North 3.5 mph - N/A   Overcast
9:53 PM 63.0 °F 57.0 °F 81% 29.97 in 10.0 mi Calm Calm - N/A   Overcast
10:53 PM 61.0 °F 57.0 °F 87% 29.97 in 10.0 mi Calm Calm - N/A   Mostly Cloudy
11:53 PM 61.0 °F 57.9 °F 90% 29.95 in 9.0 mi Calm Calm - 0.00 in Rain Light Rain